Weather History for Brookings, OR

Change the Weather History Date:

Sunday, August 25, 2013

  Actual Average Record
Temperature  
Mean Temperature 58 °F -  
Max Temperature 63 °F 67 °F 91 °F (1948)
Min Temperature 52 °F 52 °F 42 °F (1963)
Degree Days  
Heating Degree Days 8    
Growing Degree Days 8 (Base 50)    
Moisture  
Dew Point 55 °F    
Average Humidity 97    
Maximum Humidity 100    
Minimum Humidity 77    
Precipitation  
Precipitation 0.03 in - - ()
Sea Level Pressure  
Sea Level Pressure 29.94 in    
Wind  
Wind Speed 2 mph (SSW)    
Max Wind Speed 7 mph    
Max Gust Speed -    
Visibility 3 miles    
Events Fog , Rain    
Averages and records for this station are not official NWS values.
T = Trace of Precipitation, MM = Missing Value Source: NWS Daily Summary

Daily Weather History Graph

Daily Weather History Graph

Search for Another Location

Airport:

Trip Planner

Search our weather history database for the weather conditions in past years. The results will help you decide how hot, cold, wet, or windy it might be!

Date:

Astronomy

Aug. 25, 2013 Rise Set
Actual Time 6:35 AM PDT 8:01 PM PDT
Civil Twilight 6:06 AM PDT 8:30 PM PDT
Nautical Twilight 5:31 AM PDT 9:05 PM PDT
Astronomical Twilight 4:53 AM PDT 9:43 PM PDT
Moon 10:29 PM PDT (8/25) 11:49 AM PDT (8/25)
Length of Visible Light 14h 24m
Length of Day
13h 26m
Waning Gibbous, 75% of the Moon is Illuminated
Aug 25
Waning Gibbous
Aug 28
Last Quarter
Sep 5
New
Sep 12
First Quarter
Sep 19
Full

Hourly Weather History & Observations

Time (PDT) Temp. Dew Point Humidity Pressure Visibility Wind Dir Wind Speed Gust Speed Precip Events Conditions
12:13 AM 53.6 °F 53.6 °F 100% 29.91 in 0.8 mi Calm Calm - N/A   Overcast
12:20 AM 53.6 °F 53.6 °F 100% 29.91 in 0.2 mi Calm Calm - N/A Fog Fog
12:39 AM 53.6 °F 53.6 °F 100% 29.91 in 0.8 mi Calm Calm - N/A   Mostly Cloudy
12:42 AM 53.6 °F 53.6 °F 100% 29.91 in 1.2 mi Calm Calm - N/A   Mostly Cloudy
12:46 AM 53.6 °F 53.6 °F 100% 29.91 in 0.8 mi Calm Calm - N/A   Mostly Cloudy
12:49 AM 53.6 °F 53.6 °F 100% 29.91 in 0.2 mi Calm Calm - N/A Fog Fog
12:56 AM 52.9 °F 52.9 °F 100% 29.92 in 0.2 mi Calm Calm - N/A Fog Fog
1:00 AM 53.6 °F 53.6 °F 100% 29.91 in 0.8 mi Calm Calm - N/A   Overcast
1:15 AM 53.6 °F 53.6 °F 100% 29.91 in 1.2 mi Calm Calm - N/A   Overcast
1:17 AM 53.6 °F 53.6 °F 100% 29.91 in 2.0 mi Calm Calm - N/A   Overcast
1:22 AM 53.6 °F 53.6 °F 100% 29.91 in 1.2 mi Calm Calm - N/A   Overcast
1:24 AM 53.6 °F 53.6 °F 100% 29.91 in 0.8 mi Calm Calm - N/A   Overcast
1:33 AM 53.6 °F 53.6 °F 100% 29.91 in 1.2 mi Calm Calm - N/A   Overcast
1:44 AM 53.6 °F 53.6 °F 100% 29.91 in 0.8 mi NW 3.5 mph - N/A   Overcast
1:56 AM 52.9 °F 52.9 °F 100% 29.91 in 0.2 mi NNE 3.5 mph - N/A Fog Fog
2:24 AM 53.6 °F 53.6 °F 100% 29.90 in 0.8 mi NNW 3.5 mph - N/A   Mostly Cloudy
2:26 AM 53.6 °F 53.6 °F 100% 29.90 in 1.2 mi Calm Calm - N/A   Mostly Cloudy
2:30 AM 53.6 °F 53.6 °F 100% 29.90 in 0.5 mi Calm Calm - N/A Fog Fog
2:38 AM 53.6 °F 53.6 °F 100% 29.90 in 0.2 mi Calm Calm - N/A Fog Fog
2:56 AM 52.9 °F 52.9 °F 100% 29.91 in 1.5 mi Calm Calm - N/A   Overcast
3:01 AM 53.6 °F 53.6 °F 100% 29.90 in 3.0 mi Calm Calm - N/A   Overcast
3:11 AM 53.6 °F 53.6 °F 100% 29.91 in 1.8 mi Calm Calm - N/A   Mostly Cloudy
3:21 AM 53.6 °F 53.6 °F 100% 29.90 in 3.0 mi Calm Calm - N/A   Scattered Clouds
3:56 AM 52.9 °F 52.9 °F 100% 29.91 in 10.0 mi Calm Calm - N/A   Mostly Cloudy
4:23 AM 53.6 °F 53.6 °F 100% 29.92 in 1.8 mi Calm Calm - N/A   Overcast
4:30 AM 53.6 °F 53.6 °F 100% 29.92 in 3.0 mi Calm Calm - N/A   Overcast
4:33 AM 53.6 °F 53.6 °F 100% 29.92 in 1.8 mi SE 3.5 mph - N/A   Overcast
4:35 AM 53.6 °F 53.6 °F 100% 29.92 in 1.0 mi SSE 4.6 mph - N/A   Overcast
4:40 AM 53.6 °F 53.6 °F 100% 29.93 in 0.5 mi SSE 5.8 mph - N/A Fog Fog
4:49 AM 55.4 °F 53.6 °F 94% 29.93 in 0.2 mi Variable 3.5 mph - 0.00 in Fog , Rain Light Rain
4:56 AM 54.0 °F 54.0 °F 100% 29.93 in 0.2 mi SE 3.5 mph - 0.00 in Fog , Rain Light Rain
5:20 AM 55.4 °F 55.4 °F 100% 29.93 in 0.2 mi SE 5.8 mph - 0.01 in Fog , Rain Light Rain
5:38 AM 55.4 °F 55.4 °F 100% 29.92 in 0.8 mi SE 4.6 mph - 0.01 in Rain Light Rain
5:41 AM 55.4 °F 55.4 °F 100% 29.92 in 1.2 mi SE 4.6 mph - 0.01 in Rain Light Rain
5:43 AM 55.4 °F 55.4 °F 100% 29.92 in 2.5 mi SSE 4.6 mph - 0.02 in Rain Light Rain
5:56 AM 54.9 °F 54.9 °F 100% 29.91 in 7.0 mi Calm Calm - 0.02 in Rain Light Rain
6:10 AM 55.4 °F 55.4 °F 100% 29.90 in 10.0 mi Variable 3.5 mph - 0.00 in Rain Light Rain
6:56 AM 54.9 °F 54.9 °F 100% 29.92 in 10.0 mi South 5.8 mph - 0.00 in   Scattered Clouds
7:08 AM 55.4 °F 55.4 °F 100% 29.92 in 6.0 mi West 4.6 mph - N/A   Mostly Cloudy
7:17 AM 55.4 °F 55.4 °F 100% 29.92 in 1.2 mi NW 3.5 mph - N/A   Overcast
7:19 AM 55.4 °F 55.4 °F 100% 29.93 in 0.5 mi Variable 4.6 mph - N/A Fog Fog
7:27 AM 55.4 °F 53.6 °F 94% 29.93 in 0.2 mi NW 3.5 mph - N/A Fog Fog
7:39 AM 55.4 °F 55.4 °F 100% 29.94 in 0.8 mi Calm Calm - N/A   Overcast
7:42 AM 55.4 °F 55.4 °F 100% 29.94 in 1.2 mi Calm Calm - N/A   Overcast
7:44 AM 55.4 °F 55.4 °F 100% 29.94 in 2.0 mi Calm Calm - N/A   Overcast
7:56 AM 54.9 °F 54.9 °F 100% 29.94 in 8.0 mi North 3.5 mph - N/A   Overcast
8:26 AM 55.4 °F 55.4 °F 100% 29.94 in 10.0 mi SSE 4.6 mph - 0.00 in Rain Light Rain
8:46 AM 55.4 °F 55.4 °F 100% 29.94 in 7.0 mi SE 4.6 mph - 0.00 in Rain Light Rain
8:56 AM 56.8 °F 56.8 °F 100% 29.94 in 8.0 mi SSE 6.9 mph - 0.01 in Rain Light Rain
9:09 AM 57.2 °F 57.2 °F 100% 29.94 in 10.0 mi Variable 3.5 mph - 0.00 in Rain Light Rain
9:56 AM 61.0 °F 59.0 °F 93% 29.95 in 7.0 mi Variable 3.5 mph - 0.00 in Rain Light Rain
10:56 AM 57.9 °F 56.8 °F 96% 29.96 in 6.0 mi WNW 5.8 mph - 0.00 in   Scattered Clouds
11:03 AM 57.2 °F 55.4 °F 94% 29.96 in 2.5 mi West 4.6 mph - N/A   Mostly Cloudy
11:32 AM 59.0 °F 55.4 °F 88% 29.96 in 6.0 mi West 4.6 mph - N/A   Mostly Cloudy
11:56 AM 61.9 °F 56.8 °F 84% 29.96 in 10.0 mi WSW 3.5 mph - N/A   Partly Cloudy
12:56 PM 61.0 °F 55.9 °F 83% 29.96 in 10.0 mi WNW 3.5 mph - N/A   Partly Cloudy
1:47 PM 62.6 °F 55.4 °F 77% 29.97 in 10.0 mi WNW 4.6 mph - N/A   Mostly Cloudy
1:56 PM 61.9 °F 55.9 °F 81% 29.98 in 10.0 mi WNW 5.8 mph - N/A   Scattered Clouds
2:56 PM 63.9 °F 56.8 °F 78% 29.98 in 10.0 mi SW 4.6 mph - N/A   Partly Cloudy
3:56 PM 63.0 °F 56.8 °F 80% 29.97 in 10.0 mi SSE 6.9 mph - N/A   Partly Cloudy
4:56 PM 63.0 °F 56.8 °F 80% 29.97 in 10.0 mi Variable 4.6 mph - N/A   Partly Cloudy
5:44 PM 60.8 °F 55.4 °F 82% 29.97 in 10.0 mi SSE 5.8 mph - N/A   Scattered Clouds
5:56 PM 59.9 °F 55.9 °F 87% 29.97 in 8.0 mi SW 3.5 mph - N/A   Mostly Cloudy
6:56 PM 57.9 °F 55.9 °F 93% 29.97 in 4.0 mi Calm Calm - N/A   Overcast
7:06 PM 57.2 °F 55.4 °F 94% 29.96 in 5.0 mi ESE 4.6 mph - N/A   Overcast
7:23 PM 55.4 °F 55.4 °F 100% 29.96 in 1.5 mi Variable 3.5 mph - N/A   Overcast
7:28 PM 55.4 °F 55.4 °F 100% 29.96 in 1.0 mi South 4.6 mph - N/A   Overcast
7:31 PM 55.4 °F 55.4 °F 100% 29.96 in 0.5 mi South 4.6 mph - N/A Fog Fog
7:40 PM 55.4 °F 55.4 °F 100% 29.96 in 0.2 mi Calm Calm - N/A Fog Fog
7:49 PM 55.4 °F 55.4 °F 100% 29.96 in 0.8 mi Calm Calm - N/A   Overcast
7:56 PM 55.9 °F 54.9 °F 96% 29.97 in 1.5 mi Calm Calm - N/A   Overcast
8:01 PM 55.4 °F 55.4 °F 100% 29.96 in 3.0 mi Calm Calm - N/A   Overcast
8:22 PM 55.4 °F 55.4 °F 100% 29.96 in 1.8 mi Calm Calm - N/A   Overcast
8:27 PM 55.4 °F 55.4 °F 100% 29.96 in 1.0 mi Calm Calm - N/A   Overcast
8:36 PM 55.4 °F 55.4 °F 100% 29.96 in 1.5 mi Calm Calm - N/A   Overcast
8:42 PM 55.4 °F 55.4 °F 100% 29.97 in 3.0 mi Calm Calm - N/A   Overcast
8:56 PM 55.9 °F 54.9 °F 96% 29.97 in 0.5 mi West 3.5 mph - N/A Fog Fog
9:08 PM 55.4 °F 55.4 °F 100% 29.97 in 0.2 mi NW 3.5 mph - N/A Fog Fog
9:19 PM 55.4 °F 55.4 °F 100% 29.97 in 0.2 mi West 3.5 mph - N/A Fog Fog
9:45 PM 55.4 °F 55.4 °F 100% 29.98 in 0.2 mi Calm Calm - N/A Fog Fog
9:56 PM 54.9 °F 54.9 °F 100% 29.99 in 0.2 mi Calm Calm - N/A Fog Fog
10:10 PM 55.4 °F 55.4 °F 100% 29.98 in 0.2 mi SE 3.5 mph - N/A Fog Fog
10:56 PM 54.9 °F 54.9 °F 100% 29.98 in 0.2 mi East 3.5 mph - N/A Fog Fog
11:28 PM 55.4 °F 55.4 °F 100% 29.97 in 0.2 mi Variable 3.5 mph - N/A Fog Fog
11:36 PM 55.4 °F 55.4 °F 100% 29.98 in 0.2 mi Calm Calm - N/A Fog Fog
11:56 PM 54.9 °F 54.9 °F 100% 29.98 in 0.2 mi Calm Calm - N/A Fog Fog